[[{"header":{"parameterUnit":"m.s-1","parameterCategory":1,"la1":30.2991,"la2":30.254,"lo1":-89.0895,"lo2":-89.0444,"dy":0.0017,"dx":0.0017,"nx":28,"ny":28,"refTime":"2024-09-29T03:00:00:Z","depth":0,"parameterNumber":2,"parameterNumberName":"U-component_of_WINDS"},"data":[0,0,0,0,0,0,0,0,0,0,0,0,0,0,0,0,0,0,0,0,0,0,0,0,0,0,0,0,0,0,0,0,0,0,0,0,0,0,0,0,0,0,0,0,0,0,0,0,0,0,0,0,0,0,0,0,0,0,4.5144,4.5147,0,4.5365,4.5368,4.537,4.5331,4.5328,4.5324,4.532,4.5551,4.556,4.557,0,0,0,0,0,0,0,0,0,0,0,0,0,4.4692,4.47,4.5144,4.5147,4.515,4.5365,4.5368,4.5371,4.5332,4.5327,4.5323,4.5318,4.5547,4.5559,4.5571,0,0,0,0,0,0,0,0,0,0,0,0,0,4.4898,4.4703,4.5144,4.5156,4.5159,4.5364,4.5368,4.5372,4.5333,4.5327,4.5321,4.5316,4.5544,4.5558,4.5572,4.578,0,0,4.5617,4.5623,0,0,0,0,0,0,0,0,4.4887,4.4915,4.5152,4.5156,4.516,4.5315,4.5293,4.5509,4.5335,4.5267,4.532,4.5313,4.5477,4.5497,4.5551,4.579,4.58,4.5618,4.5627,4.5634,4.5638,0,0,0,0,0,0,0,4.4872,4.4905,4.5232,4.5155,4.516,4.5152,4.5175,4.5333,4.5403,4.5273,4.527,4.5297,4.5478,4.5537,4.5556,4.5804,4.5618,4.5631,4.564,4.5646,4.6222,4.6229,0,0,0,0,0,0,4.4854,4.4894,4.5225,4.5238,4.5006,4.5165,4.519,4.5271,4.5401,4.5415,4.5302,4.5294,4.5515,4.5539,4.5564,4.5814,4.5633,4.5647,4.5656,4.6216,4.6224,4.6231,0,0,0,0,0,0,4.4844,4.4884,4.5216,4.5065,4.5107,4.5179,4.527,4.5278,4.5337,4.5422,4.5435,4.5349,4.5511,4.5544,4.5726,4.5822,4.5654,4.5667,4.6208,4.6218,4.6227,4.6316,0,0,0,0,0,0,4.4831,4.488,4.4959,4.5067,4.5115,4.5373,4.5276,4.5287,4.5362,4.5354,4.547,4.5484,4.5509,4.5704,4.574,4.5839,4.5679,4.62,4.6213,4.6224,4.6305,4.6328,4.6348,0,0,0,0,0,4.4815,4.4977,4.4963,4.5004,4.5215,4.5378,4.5406,4.5431,4.537,4.545,4.5504,4.548,4.5805,4.5723,4.5763,4.5868,4.6194,4.6209,4.6223,4.6296,4.6324,4.6347,0,0,0,0,0,0,4.488,4.4991,4.4978,4.5179,4.5269,4.5371,4.5473,4.546,4.557,4.5559,4.5586,4.5613,4.5797,4.5851,4.5757,4.6075,4.5991,4.6015,4.6032,4.606,4.608,4.6063,4.5691,0,0,0,0,0,4.4917,4.504,4.5131,4.5299,4.5345,4.5402,4.5474,4.5485,4.558,4.5619,4.5686,4.5781,4.5904,4.5985,4.6104,4.6313,4.6337,4.6405,4.6426,4.6443,4.6463,4.6576,4.6607,4.6279,4.6279,4.6279,0,0,4.4997,4.5072,4.5148,4.5314,4.5386,4.5512,4.5434,4.5572,4.5666,4.564,4.5815,4.5868,4.5976,4.6172,4.6261,4.6222,4.6558,4.6462,4.6474,4.6485,4.6594,4.6625,4.6653,4.6289,4.6287,4.6286,0,0,4.5205,4.5275,4.5422,4.5495,4.5603,4.5639,4.5674,4.5779,4.5812,4.5988,4.5971,4.6084,4.6296,4.6373,4.644,4.6675,4.6657,4.6714,4.6824,4.6934,4.696,4.6983,4.7066,4.7095,4.6733,4.6733,4.6734,0,4.529,4.5478,4.55,4.5639,4.5712,4.5693,4.5842,4.5912,4.6054,4.6106,4.6059,4.6324,4.6395,4.6608,4.6665,4.672,4.6761,4.67,4.6954,4.6977,4.6999,4.7079,4.711,4.674,4.6739,4.6738,4.6738,0,4.5577,4.5708,4.5814,4.5949,4.6035,4.6179,4.6223,4.6307,4.631,4.6351,4.653,4.6615,4.6749,4.68,4.6807,4.7015,4.6986,4.6947,4.6864,4.7036,4.7111,4.7142,4.6748,4.6746,4.6744,4.6743,0,0,4.5833,4.5977,4.6015,4.6076,4.6193,4.6295,4.6438,4.6567,4.6638,4.6737,4.6857,4.7036,4.7,4.7076,4.709,4.7187,4.7367,4.7136,4.7139,4.7175,4.7599,4.7627,4.7662,4.7355,4.7361,4.7366,4.759,0,4.6051,4.6301,4.6324,4.6549,4.6669,4.6652,4.6776,4.6862,4.6904,4.7014,4.7061,4.7187,4.713,4.7175,4.727,4.7325,4.7452,4.7309,4.7467,4.7472,4.7439,4.7701,4.7732,4.7939,4.7619,4.7624,4.7628,0,4.634,4.6444,4.668,4.6778,4.683,4.6941,4.706,4.7165,4.7262,4.7286,4.737,4.7371,4.7518,4.7429,4.7632,4.7534,4.7601,4.7637,4.7646,4.766,4.756,4.7722,4.8006,4.8037,4.7675,4.7671,4.7668,0,4.6501,4.6701,4.6867,4.692,4.7039,4.7117,4.7171,4.7262,4.7338,4.7443,4.7492,4.7614,4.7681,4.7775,4.7809,4.7742,4.801,4.7925,4.8034,4.8033,4.8091,4.8087,4.8388,4.8136,4.8135,4.8135,4.8134,0,4.6741,4.6886,4.6941,4.7043,4.7204,4.723,4.7389,4.7439,4.752,4.7632,4.7626,4.7731,4.777,4.7882,4.791,4.8073,4.8104,4.8127,4.8133,4.8127,4.8124,4.817,4.8156,4.8143,4.8141,4.814,4.8138,0,4.6949,4.6991,4.7171,4.7269,4.7296,4.7411,4.7495,4.7594,4.7634,4.7776,4.7811,4.7874,4.8006,4.8049,4.8209,4.8227,4.8417,4.8411,4.8383,4.8384,4.849,4.8479,4.8831,4.8878,4.8596,4.8598,4.8601,0,4.7099,4.7209,4.7318,4.7392,4.7448,4.7567,4.7643,4.7673,4.7753,4.7871,4.7955,4.8085,4.819,4.8402,4.8463,4.8584,4.858,4.8695,4.8599,4.8589,4.858,4.8573,4.8583,4.8713,4.8716,4.8718,4.872,0,4.7361,4.7376,4.7485,4.7603,4.7693,4.7788,4.7879,4.794,4.7982,4.8073,4.8206,4.8287,4.8449,4.8578,4.8702,4.8758,4.8747,4.875,4.8781,4.8776,4.8755,4.8767,4.8431,4.8742,4.874,4.8738,4.8737,4.8736,4.7543,4.764,4.7731,4.7853,4.7924,4.8008,4.8105,4.8156,4.8267,4.84,4.8411,4.8555,4.8648,4.8812,4.8875,4.8988,4.8955,4.9001,4.9013,4.9023,4.9031,4.8738,4.9011,4.901,4.901,4.9009,4.9009,0,4.7803,4.786,4.7972,4.8098,4.8194,4.8173,4.8273,4.8354,4.848,4.8567,4.867,4.8823,4.8947,4.9017,4.9142,4.9219,4.9216,4.925,4.9244,4.9257,4.9054,4.9013,4.925,4.925,4.925,4.925,4.925,4.925,4.795,4.8111,4.8137,4.8334,4.839,4.8529,4.8587,4.8665,4.8734,4.8904,4.9007,4.9051,4.9131,4.9261,4.9374,4.9392,4.9437,4.9475,4.9488,4.9297,4.9272,4.9248,4.921,4.9485,4.9485,4.9682,4.9684,4.9686]},{"header":{"parameterUnit":"m.s-1","parameterCategory":1,"la1":30.2991,"la2":30.254,"lo1":-89.0895,"lo2":-89.0444,"dy":0.0017,"dx":0.0017,"nx":28,"ny":28,"refTime":"2024-09-29T03:00:00:Z","depth":0,"parameterNumber":3,"parameterNumberName":"V-component_of_WINDS"},"data":[0,0,0,0,0,0,0,0,0,0,0,0,0,0,0,0,0,0,0,0,0,0,0,0,0,0,0,0,0,0,0,0,0,0,0,0,0,0,0,0,0,0,0,0,0,0,0,0,0,0,0,0,0,0,0,0,0,0,0.1088,0.1089,0,0.113,0.1131,0.1131,0.1113,0.1112,0.1111,0.111,0.1156,0.1158,0.1161,0,0,0,0,0,0,0,0,0,0,0,0,0,0.0994,0.0996,0.1088,0.1089,0.1089,0.113,0.1131,0.1131,0.1113,0.1112,0.111,0.1109,0.1155,0.1158,0.1161,0,0,0,0,0,0,0,0,0,0,0,0,0,0.1036,0.0997,0.1088,0.1085,0.1085,0.113,0.1131,0.1132,0.1113,0.1112,0.111,0.1109,0.1155,0.1158,0.1161,0.1213,0,0,0.1171,0.1173,0,0,0,0,0,0,0,0,0.1033,0.1039,0.1085,0.1085,0.1085,0.1115,0.1115,0.1159,0.1114,0.1103,0.111,0.1108,0.1144,0.1148,0.1159,0.1215,0.1217,0.1172,0.1174,0.1175,0.1176,0,0,0,0,0,0,0,0.1031,0.1037,0.1105,0.1086,0.1086,0.1082,0.1086,0.1123,0.1132,0.1103,0.1102,0.1107,0.1144,0.1156,0.116,0.1218,0.1171,0.1174,0.1176,0.1178,0.1318,0.132,0,0,0,0,0,0,0.1027,0.1035,0.1104,0.1106,0.1055,0.1085,0.109,0.1107,0.1131,0.1133,0.1108,0.1106,0.1151,0.1157,0.1162,0.1225,0.1175,0.1178,0.118,0.1317,0.1319,0.1321,0,0,0,0,0,0,0.1025,0.1034,0.1102,0.107,0.1079,0.1088,0.1108,0.1109,0.1121,0.1135,0.1137,0.112,0.115,0.1157,0.12,0.1226,0.118,0.1183,0.1315,0.1317,0.132,0.1351,0,0,0,0,0,0,0.1023,0.1033,0.1052,0.1071,0.108,0.1139,0.1109,0.111,0.1126,0.1124,0.1146,0.1148,0.115,0.1195,0.1204,0.123,0.1185,0.1312,0.1316,0.1319,0.1348,0.1354,0.136,0,0,0,0,0,0.1019,0.106,0.1053,0.1062,0.1105,0.114,0.1146,0.1146,0.1129,0.1149,0.1157,0.1147,0.1221,0.12,0.1209,0.1237,0.1311,0.1315,0.1319,0.1345,0.1353,0.136,0,0,0,0,0,0,0.1046,0.1063,0.1055,0.1103,0.112,0.1137,0.1163,0.1155,0.1178,0.1175,0.1175,0.118,0.1225,0.1235,0.121,0.1288,0.1264,0.127,0.128,0.1288,0.1294,0.1292,0.1188,0,0,0,0,0,0.1057,0.1084,0.1097,0.1138,0.1147,0.1153,0.1169,0.1167,0.1185,0.1193,0.1205,0.1224,0.1252,0.127,0.1296,0.1348,0.1353,0.1372,0.1378,0.1383,0.1389,0.1417,0.1426,0.1334,0.1334,0.1334,0,0,0.1081,0.1093,0.111,0.1143,0.1157,0.1185,0.116,0.1191,0.1213,0.1198,0.124,0.1249,0.127,0.1318,0.1339,0.1328,0.1415,0.1388,0.1392,0.1395,0.1422,0.1431,0.1439,0.1336,0.1336,0.1335,0,0,0.1139,0.1151,0.1186,0.1199,0.1219,0.1223,0.1231,0.1249,0.1255,0.1295,0.1285,0.1311,0.1359,0.1374,0.1389,0.1451,0.1444,0.146,0.1493,0.1521,0.1528,0.1534,0.1558,0.1566,0.1465,0.1465,0.1465,0,0.1167,0.1209,0.1206,0.1238,0.1253,0.1239,0.1276,0.1289,0.1317,0.1328,0.1314,0.1373,0.1386,0.1438,0.1453,0.1464,0.1475,0.1458,0.1527,0.1533,0.1539,0.1562,0.1571,0.1467,0.1467,0.1467,0.1466,0,0.1242,0.1271,0.1298,0.1324,0.1341,0.1376,0.1378,0.1397,0.1393,0.1399,0.1441,0.1456,0.1485,0.1497,0.1494,0.1548,0.154,0.1526,0.1502,0.155,0.1571,0.158,0.147,0.1469,0.1469,0.1468,0,0,0.1321,0.1343,0.1353,0.1365,0.1385,0.1408,0.1441,0.1468,0.1485,0.1504,0.1533,0.1572,0.156,0.1576,0.1574,0.1599,0.1648,0.1582,0.1582,0.1595,0.171,0.1721,0.1731,0.1642,0.1644,0.1645,0.1708,0,0.1381,0.1439,0.1437,0.1491,0.1519,0.1505,0.1535,0.1551,0.1556,0.1581,0.1587,0.1616,0.1596,0.1606,0.1629,0.1637,0.1672,0.1633,0.1671,0.1672,0.1668,0.1742,0.1754,0.1814,0.1717,0.1718,0.1719,0,0.1461,0.1481,0.1538,0.1554,0.1565,0.1592,0.1616,0.1639,0.1657,0.166,0.1677,0.1671,0.1706,0.1679,0.1727,0.1701,0.1716,0.1722,0.1725,0.173,0.17,0.1751,0.1832,0.1842,0.1732,0.1731,0.173,0,0.1514,0.1556,0.1595,0.1605,0.1624,0.1643,0.1652,0.1668,0.1685,0.1706,0.1717,0.1743,0.1757,0.1777,0.1779,0.1759,0.1828,0.1801,0.1833,0.1833,0.185,0.1849,0.1936,0.1856,0.1856,0.1856,0.1856,0,0.1583,0.1619,0.1619,0.1644,0.1683,0.168,0.172,0.1727,0.1741,0.1768,0.1757,0.1783,0.1782,0.1808,0.181,0.185,0.1856,0.186,0.1861,0.1862,0.1862,0.1874,0.187,0.1858,0.1858,0.1857,0.1857,0,0.165,0.1651,0.1694,0.1708,0.1712,0.1741,0.1753,0.1777,0.178,0.1814,0.1822,0.1828,0.1858,0.1861,0.1896,0.1897,0.1946,0.1941,0.194,0.194,0.1971,0.1969,0.2071,0.2085,0.1994,0.1995,0.1996,0,0.1695,0.1722,0.1738,0.1754,0.1764,0.1791,0.1807,0.1804,0.1822,0.1844,0.1865,0.1893,0.1916,0.1965,0.1973,0.2,0.1996,0.203,0.2001,0.2001,0.1999,0.1998,0.2001,0.2037,0.2038,0.2039,0.2039,0,0.1775,0.1774,0.1797,0.1821,0.184,0.1859,0.1877,0.1891,0.189,0.1911,0.194,0.1958,0.1992,0.2021,0.2047,0.2057,0.2049,0.2048,0.2057,0.206,0.2059,0.2061,0.1958,0.2046,0.2046,0.2045,0.2045,0.2044,0.1833,0.1857,0.1872,0.1898,0.1911,0.1927,0.195,0.1956,0.198,0.2008,0.2005,0.2038,0.2055,0.2088,0.21,0.2127,0.2116,0.2128,0.2132,0.2135,0.2139,0.2053,0.2131,0.2131,0.2131,0.2131,0.213,0,0.1914,0.1923,0.1947,0.1971,0.1992,0.198,0.1998,0.2017,0.2046,0.2062,0.2084,0.2118,0.2145,0.2155,0.2182,0.2202,0.2198,0.2209,0.2209,0.2211,0.2147,0.2137,0.2211,0.2211,0.2211,0.2211,0.2211,0.2211,0.1959,0.1998,0.1999,0.2044,0.2053,0.2084,0.2096,0.2111,0.2124,0.2162,0.2185,0.219,0.2204,0.2232,0.2256,0.2259,0.227,0.2283,0.2283,0.2224,0.2216,0.2208,0.2199,0.2285,0.2285,0.2346,0.2346,0.2347]}]]